{"data":{"norad_id":58077,"epoch":"2026-05-24T23:24:03.511296Z","epoch_age_seconds":74274,"freshness":"FRESH","line1":"1 58077U 23160C   26144.97504064 -.00003721  00000+0 -12566-3 0  9998","line2":"2 58077  43.0028   6.9901 0001329 267.2772  92.7927 15.27606179144626","mean_motion":15.27606179,"eccentricity":0.0001329,"inclination_deg":43.0028,"raan_deg":6.9901,"arg_perigee_deg":267.2772,"mean_anomaly_deg":92.7927,"bstar":-0.00012566,"rev_number":14462,"period_min":94.265133238899,"perigee_km":482.05886660092,"apogee_km":483.88254902966,"semimajor_km":6861.1077078153,"source":"CELESTRAK","updated_at":"2026-05-25T13:38:18.519762Z"}}